Location: Bosdarros
(43.2167°N, 0.3667°W)
Time: 08:22:29
(UTC+00:00)

Cosmos 405 Rocket - Pass Details

Date: 22 April 2021
Orbit: 489 x 553 km, 81.3° (Epoch: 07 May)

Event Time Altitude Azimuth Distance (km) Brightness Sun altitude
Rises 20:11:51 0° 347° (NNW) 2,715 7.1 -13.8°
Reaches altitude 10° 20:14:03 10° 345° (NNW) 1,809 6.2 -14.2°
Maximum altitude 20:18:00 67° 263° (W) 579 3.0 -14.8°
Enters shadow 20:21:32 12° 181° (S) 1,633 4.9 -15.3°
